Regional Weather Roundup
Issued by NWS Spokane, WA

Home | Current Version | Previous Version | Text Only | Print | Product List | Glossary On
Versions: 1 2 3 4 5 6 7 8 9 10 11 12 13 14 15 16 17 18 19 20 21 22 23 24 25 26 27 28 29 30 31 32 33 34 35 36 37 38 39 40 41 42 43 44 45 46 47 48 49 50
000
NZUS01 KOTX 241425
RWROTX

Eastern Washington/Northern Idaho Roundup
National Weather Service, Spokane WA
600 AM PST TUE JAN 24 2017

Note: "fair" indicated few or no clouds below 12,000 feet with no
significant weather and/or obstructions to visibility.

...Northeast Washington and Northern Idaho Panhandle...

CITY           SKY/WX    TMP DP  RH WIND       PRES   REMARKS
Spokane Intl   LGT SNOW  29  27  92 W7        29.95R FOG     WCI  22
Spokane Downto CLOUDY    32  31  96 SW3       29.97R
Coeur d Alene  CLOUDY    30  29  96 N3        29.95R FOG
Deer Park      CLOUDY    30  29  96 S3        29.96R FOG
Sandpoint      CLOUDY   N/A N/A N/A CALM      29.97R
Bonners Ferry  CLOUDY    25  21  86 CALM      29.95R

...Southeast Washington and southern Idaho Panhandle...

CITY           SKY/WX    TMP DP  RH WIND       PRES   REMARKS
Walla Walla    CLOUDY    31  28  89 S5        30.02S WCI  26
Pullman/Moscow FOG       28  26  92 W8        29.96S VSB 1/2 WCI  20
Lewiston       CLOUDY    32  28  85 W6        30.00R WCI  26
Lowell           N/A     32  26  78 S5        30.00R WCI  27
Grangeville    CLOUDY    27  27 100 SE5       29.91R WCI  21

...Columbia Basin...

CITY           SKY/WX    TMP DP  RH WIND       PRES   REMARKS
Ephrata        CLOUDY    25  22  88 CALM      30.00R
Moses Lake     CLOUDY    27  24  89 CALM      30.01S
Pasco          CLOUDY    32  31  96 SW3       30.08R
Richland       CLOUDY    32  31  94 SW3       30.08R
Hermiston      CLOUDY    30  30 100 W5        30.06R FOG     WCI  25
Pendleton      FOG       30  29  96 NW6       30.02R VSB 1/4 WCI  24

...East Slopes Cascades...

CITY           SKY/WX    TMP DP  RH WIND       PRES   REMARKS
The Dalles     CLOUDY    33  30  88 CALM      30.09R
Yakima         FOG       22  20  92 W6        30.05R VSB 1/2 WCI  14
Ellensburg     FOG       23  20  88 NE5       29.99S VSB 1/4 WCI  17
Stampede Pass  CLEAR     24  24 100 VRB5      29.92R FOG     WCI  18
Wenatchee      CLOUDY    24  23  96 CALM      30.01R
Omak           FOG       32  29  88 CALM      30.00R VSB 3/4
Sunnyside      CLOUDY    28  27  99 CALM      30.07R FOG

...Southern British Columbia...

CITY           SKY/WX    TMP DP  RH WIND       PRES   REMARKS
Penticton        N/A     34  34 100 NE2       30.01R FOG
Castlegar      CLOUDY    34  30  86 N6        29.97  WCI  29
Cranbrook      MOCLDY    19  16  86 W2        29.93R
Osoyoos          N/A     34  32  93 NE1         N/A
Creston          N/A     27  19  74 E10         N/A  WCI  17

...Western Montana...

CITY           SKY/WX    TMP DP  RH WIND       PRES   REMARKS
Kalispell      MOSUNNY    2   0  91 CALM      29.93R
Missoula       MOCLDY    18  12  77 SE5       29.92R WCI  11

...Neighboring Cities...

CITY           SKY/WX    TMP DP  RH WIND       PRES   REMARKS
Seattle        MOCLDY    31  30  96 CALM      30.08R
Portland       PTCLDY    30  28  92 CALM      30.10R FOG
Boise          MOCLDY    25  20  81 NW10      29.79R WCI  15
Great Falls    CLEAR      7   4  87 SW8       29.86R WCI  -6
Calgary        MOCLDY    12  10  92 S7        29.83S FOG     WCI   2



USA.gov is the U.S. government's official web portal to all federal, state and local government web resources and services.